Location: Juzet
(42.9779°N, 0.7597°E)
Time: 07:26:58
(UTC+00:00)

Cosmos 724 - Pass Details

Date: 14 July 2020
Orbit: 859 x 936 km, 65.6° (Epoch: 04 August)

Event Time Altitude Azimuth Distance (km) Brightness Sun altitude
Exits shadow 00:59:22 46° 245° (WSW) 1,149 4.6 -24.1°
Maximum altitude 01:00:59 65° 306° (NW) 947 4.4 -24.0°
Drops below altitude 10° 01:06:47 10° 28° (NNE) 2,523 7.7 -23.7°
Sets 01:09:19 0° 31° (NNE) 3,474 8.7 -23.6°
